Location: Bühlhof
(48.7849°N, 8.6361°E)
Time: 00:11:11
(UTC+00:00)

Cosmos 1869 Rocket - Pass Details

Date: 19 January 2026
Orbit: 597 x 626 km, 82.5° (Epoch: 9 February)

Event Time Altitude Azimuth Distance (km) Brightness Sun altitude
Rises 16:43:26 0° 357° (N) 2,901 6.8 -6.8°
Reaches altitude 10° 16:45:51 10° 6° (N) 1,985 5.9 -7.2°
Maximum altitude 16:49:53 35° 73° (ENE) 997 4.1 -7.8°
Drops below altitude 10° 16:53:52 10° 139° (SE) 1,954 5.9 -8.4°
Sets 16:56:12 0° 149° (SSE) 2,848 6.9 -8.8°
